Home > Weather > Itzehoe > Past weeks

Flag for Germany Past Weather in Itzehoe, Schleswig-Holstein, Germany — Yesterday and Last 2 Weeks

Now
77 °F

Passing clouds.


Feels Like: 79 °F
Forecast: 66 / 84 °F
Wind: 8 mph from Southeast

Location: Hohn

Current Time: Aug 24, 2016 at 2:31:17 PM

Latest Report: Aug 24, 2016 at 1:20 PM


Visibility: N/A

Pressure: 30.24 "Hg

Humidity: 61%

Dew Point: 63 °F

Location of ItzehoeLocation

Past Weather in Itzehoe — Graph

°F

Itzehoe Temperature Yesterday

Maximum temperature yesterday: 73 °F (at 2:20 PM)
Minimum temperature yesterday: 59 °F (at 11:20 PM)
Average temperature yesterday: 67 °F

High & Low Weather Summary for the Past Weeks

 TemperatureHumidityPressure
High75 °F (Aug 24, 12:20 PM)100% (Aug 10, 6:20 AM)30.30 "Hg (Aug 10, 6:20 AM)
Low43 °F (Aug 16, 5:20 AM)41% (Aug 16, 4:20 PM)29.77 "Hg (Aug 20, 6:20 AM)
Average59 °F84%30.06 "Hg
* Reported Aug 9 12:20 PM — Aug 24 12:20 PM, Itzehoe, Weather by CustomWeather, © 2016

Note: Actual official high and low records may vary slightly from our data, if they occured in-between our weather recording intervals... More about our weather records

Advertising

Itzehoe Weather History for the Previous 24 Hours

Scroll right to see more
 ConditionsComfort  
Time TempWeatherWind HumidityBarometerVisibility
12:20 PM
Wed, Aug 24
75 °FPassing clouds.8 mph69%30.24 "HgN/A
11:20 AM73 °FPassing clouds.6 mph74%30.27 "HgN/A
10:20 AM72 °FPassing clouds.7 mph78%30.27 "HgN/A
9:20 AM66 °FPassing clouds.5 mph88%30.27 "HgN/A
8:20 AM63 °FPassing clouds.5 mph94%30.27 "HgN/A
7:20 AM59 °FPassing clouds.2 mph94%30.27 "Hg5 mi
6:48 AM57 °FFog.No wind94%30.27 "Hg3 mi
6:20 AM55 °FFog.No wind100%30.27 "Hg3 mi
5:46 AM57 °FFog.1 mph100%30.27 "Hg3 mi
5:20 AM57 °FFog.2 mph94%30.27 "Hg2 mi
5:01 AM57 °FFog.2 mph94%30.27 "Hg2 mi
4:20 AM59 °FFog.3 mph94%30.27 "Hg3 mi
3:20 AM59 °FFog.3 mph100%30.30 "Hg3 mi
2:20 AM59 °FFog.2 mph100%30.30 "Hg4 mi
1:20 AM57 °FFog.1 mph94%30.30 "Hg5 mi
12:20 AM57 °FFog.1 mph100%30.30 "Hg5 mi
11:20 PM
Tue, Aug 23
59 °FFog.1 mph100%30.30 "HgN/A
10:20 PM63 °FFog.No wind94%30.30 "HgN/A
9:20 PM63 °FScattered clouds.1 mph94%30.30 "HgN/A
8:20 PM68 °FPartly sunny.3 mph83%30.30 "HgN/A
7:20 PM72 °FPartly sunny.6 mph73%30.30 "HgN/A
6:20 PM72 °FScattered clouds.6 mph73%30.30 "HgN/A
5:20 PM73 °FPassing clouds.7 mph65%30.30 "HgN/A
4:20 PM73 °FScattered clouds.7 mph65%30.30 "HgN/A
3:20 PM73 °FScattered clouds.8 mph65%30.30 "HgN/A
2:20 PM73 °FScattered clouds.12 mph69%30.30 "HgN/A
Weather by CustomWeather, © 2016

See weather overviewHow to use our weather pages